AirNav   Duncan Aviation - Near you to keep you flying
 
 661 users online  

K50 Cook Airfield
Rose Hill, Kansas, USA

GOING TO ROSE HILL?


FAA INFORMATION EFFECTIVE 26 JANUARY 2023

Location

FAA Identifier: K50
Lat/Long: 37-33-55.4000N 097-10-28.6000W
37-33.923333N 097-10.476667W
37.5653889,-97.1746111
(estimated)
Elevation: 1343.9 ft. / 409.6 m (surveyed)
Variation: 07E (1985)
From city: 2 miles W of ROSE HILL, KS
Time zone: UTC -6 (UTC -5 during Daylight Saving Time)
Zip code: 67037

Airport Operations

Airport use: Open to the public
Activation date: 03/1960
Control tower: no
ARTCC: KANSAS CITY CENTER
FSS: WICHITA FLIGHT SERVICE STATION
NOTAMs facility: ICT (NOTAM-D service available)
Attendance: UNATNDD
Wind indicator: lighted
Segmented circle: no
Lights: ACTVT PAPI RWY 17; MIRL RWY 17/35 - 123.5.
Beacon: white-green (lighted land airport)
ACTVT BCN - 123.5.

Airport Communications

CTAF/UNICOM: 122.8
WX AWOS-3P at 3AU (8 nm NE): 124.175 (316-733-6696)
WX AWOS-3PT at BEC (8 nm N): 119.45 (316-515-7116)
WX ASOS at AAO (11 nm N): 134.025 (316-636-2541)
WX AWOS-2 at 1K1 (13 nm N): 118.3 (316-530-6004)
WX ASOS at ICT (13 nm W): PHONE 316-945-8022
WX AWOS-3P at EGT (18 nm SW): 118.875 (620-359-2156)

Nearby radio navigation aids

VOR radial/distance  VOR name  Freq  Var
ICTr112/22.2WICHITA VORTAC113.8007E

 
NDB name  Hdg/Dist  Freq  Var  ID
PICHE089/13.433204EIC .. -.-.

Airport Services

Fuel available: 100LL MOGAS
100LL:SELF-SVC FUEL AVBL 24 HRS.
Parking: tiedowns
Airframe service: NONE
Powerplant service: NONE
Bottled oxygen: NONE
Bulk oxygen: NONE

Runway Information

Runway 17/35

Dimensions: 3472 x 40 ft. / 1058 x 12 m
Surface: asphalt, in good condition
Weight bearing capacity: 
Single wheel: 2.0
Runway edge lights: medium intensity
RUNWAY 17  RUNWAY 35
Latitude: 37-34.203890N37-33.631978N
Longitude: 097-10.497295W097-10.495293W
Elevation: 1335.7 ft.1336.4 ft.
Traffic pattern: leftright
Displaced threshold: 198 ft.no
Markings: basic, in good conditionbasic, in good condition
Visual slope indicator: 2-light PAPI on left (4.00 degrees glide path)
Touchdown point: yes, no lightsyes, no lights
Obstructions: 24 ft. trees, 330 ft. from runway, 65 ft. right of centerline, 5:1 slope to clear
12 FT TREE 120 FT FM THLD 55 FT RIGHT OF CNTRLN AND 6 FT TREE 180 FT FM THLD 80 FT LEFT OF CNTRLN.
15 ft. road, 400 ft. from runway, 13:1 slope to clear

Runway 1/19

Dimensions: 1600 x 50 ft. / 488 x 15 m
Surface: turf, in good condition
Runway edge markings: MKD WITH ORANGE CONES.
RUNWAY 1  RUNWAY 19
Latitude: 37-33.808297N37-34.060378N
Longitude: 097-10.485180W097-10.388223W
Elevation: 1341.5 ft.1329.9 ft.
Traffic pattern: leftleft
Touchdown point: yes, no lightsyes, no lights
Obstructions: 15 ft. road, 230 ft. from runway, 15:1 slope to clear63 ft. tree, 655 ft. from runway, 10:1 slope to clear

Airport Ownership and Management from official FAA records

Ownership: Privately-owned
Owner: CROSSWIND AVAITION INC.
P.O. BOX 574
ROSE HILL, KS 67133
Phone 316-706-6131
Manager: STEVE LOGUE
6841 S.143RD
DERBY, KS 67037
Phone 316-706-6131
CO-MANAGER PHONE 316-650-6581.

Airport Operational Statistics

Aircraft based on the field: 82
Single engine airplanes: 77
Multi engine airplanes: 3
Ultralights: 2
    
Aircraft operations: avg 51/day *
95% local general aviation
5% transient general aviation
* for 12-month period ending 19 July 2019

Additional Remarks

FOR CD CTC WICHITA APCH AT 316-350-1520.
RWY 17 CLNC SLOPE 21:1 TO 190 FT DSPLCD THLD.

Instrument Procedures

There are no published instrument procedures at K50.

Some nearby airports with instrument procedures:

KIAB - Mc Connell Air Force Base (6 nm NW)
KCEA - Cessna Aircraft Field Airport (6 nm NW)
3AU - Augusta Municipal Airport (8 nm NE)
KBEC - Beech Factory Airport (8 nm N)
KAAO - Colonel James Jabara Airport (11 nm N)
1K1 - Lloyd Stearman Field Airport (13 nm N)
KICT - Wichita Dwight D Eisenhower National Airport (13 nm NW)
KEGT - Wellington Municipal Airport (18 nm SW)
 
Loc | Ops | Rwys | IFR | FBO | Links
Com | Nav | Svcs | Stats | Notes
Area around K50 (Cook Airfield)
 
Road maps at: MapQuest Bing Google
 
Aerial photo
WARNING: Photo may not be current or correct
Aerial photo of K50 (Cook Airfield)
Taken in 2017
looking south.

Do you have a better or more recent aerial photo of Cook Airfield that you would like to share? If so, please send us your photo.

 
Sectional chart

 
Airport distance calculator
Flying to Cook Airfield? Find the distance to fly.

From to K50

Sunrise and sunset
Times for 06-Feb-2023
 Local
(UTC-6)
 Zulu
(UTC)
Morning civil twilight07:0213:02
Sunrise07:2913:29
Sunset17:5723:57
Evening civil twilight18:2400:24

Current date and time
Zulu (UTC)  06-Feb-2023 09:40:43
Local (UTC-6)  06-Feb-2023 03:40:43
 
METAR
KIAB 
5nm NW 
060855Z AUTO 15010KT 10SM CLR 06/02 A2985 RMK AO2 SLP112 T00590016 57032 $
K3AU 
8nm NE 
060915Z AUTO 12009KT 10SM CLR 06/01 A2988 RMK AO2
KBEC 
8nm N 
060915Z AUTO 12009KT 10SM CLR 06/02 A2987 RMK AO2 T00590019
KAAO 
11nm N 
060854Z AUTO 14011KT 10SM CLR 06/01 A2988 RMK AO2 SLP121 T00610011 58033
KICT 
13nm NW 
060853Z 13012KT 10SM CLR 07/02 A2987 RMK AO2 SLP113 T00720022 58035
KEGT 
18nm SW 
060915Z AUTO 12011KT 10SM CLR 05/02 A2987 RMK AO2 T00480021
TAF
KIAB 
5nm NW 
060315Z 0603/0708 13009KT 9999 SKC QNH3002INS BECMG 0608/0609 15006KT 9999 BKN020 OVC030 QNH2983INS TEMPO 0612/0615 8000 BR BKN010 OVC020 BECMG 0614/0615 19015G25KT 9999 SCT200 QNH2974INS BECMG 0622/0623 34010G15KT 9999 SKC QNH2982INS TX10/0621Z TN03/0612Z
KICT 
13nm NW 
060533Z 0606/0706 14008KT P6SM FEW250 FM061200 16014KT P6SM BKN200 WS020/20045KT FM061700 19015G23KT P6SM BKN200 FM062100 22014KT P6SM SCT250 FM062300 26012KT P6SM SCT250 FM070500 34011KT P6SM SCT250
NOTAMs
Click for the latest NOTAMs
NOTAMs are issued by the DoD/FAA and will open in a separate window not controlled by AirNav.

 

 
 

FBO, Fuel Providers, and Aircraft Ground Support

  
 Business Name 
 
 Contact 
 
 Services / Description 
 
Fuel Prices
 
Comments
  
Crosswinds Aviation, Inc. 316-706-6131
316-650-6581
[web site]
[email]
Airport management, Aviation fuel, Aircraft parking (ramp or tiedown), Hangars, Hangar leasing / sales, Skydiving, Aircraft management, Flying club, ...

More info about Crosswinds Aviation, Inc.
independent
100LL Mogas
SS $5.49 $3.99 
GUARANTEED
 
   1 read write
SS=Self service
Update Fuel Prices
 

Would you like to see your business listed on this page?

 If your business provides an interesting product or service to pilots, flight crews, aircraft, or users of the Cook Airfield, you should consider listing it here.  To start the listing process, click on the button below
 
Add a business
 

Other Pages about Cook Airfield

cookairfield.com
 
Update a link
 
Copyright © AirNav, LLC. All rights reserved. Privacy Policy  Contact